Location: Unspecified
(0.0000°N, 0.0000°E)
Time: 18:00:40
(UTC+00:00)

Courier 1B Rocket - Visible Passes

Search period start: 20 September 2014 00:00
Search period end: 30 September 2014 00:00
Orbit: 921 x 1202 km, 28.2° (Epoch: 18 September)

Date Brightness Start Highest point End Pass type
(mag) Time Alt. Az. Time Alt. Az. Time Alt. Az.
20 Sep 7.2 03:57:16 13° S 03:57:16 13° S 03:59:08 10° S visible
23 Sep 7.3 19:58:24 10° N 20:00:11 13° N 20:00:11 13° N visible
24 Sep 7.6 20:48:48 10° NNW 20:49:21 12° NNW 20:49:21 12° NNW visible
25 Sep 6.9 19:48:36 10° NNW 19:52:13 19° N 19:52:13 19° N visible
26 Sep 7.1 18:49:00 10° N 18:52:16 13° NNE 18:55:07 11° NE visible
26 Sep 7.2 20:39:39 10° NW 20:41:30 18° NNW 20:41:30 18° NNW visible
27 Sep 6.4 19:39:14 10° NNW 19:44:29 28° NNE 19:44:29 28° NNE visible
28 Sep 6.7 18:39:10 10° NNW 18:44:02 19° NNE 18:47:32 14° ENE visible
28 Sep 6.7 20:30:46 10° NW 20:33:56 28° NW 20:33:56 28° NW visible
29 Sep 5.7 19:30:08 10° NW 19:36:50 42° NNE 19:37:04 42° NE visible
29 Sep 7.9 21:23:18 10° WNW 21:23:28 11° WNW 21:23:28 11° WNW visible
